When you browse on this site, cookies collect data to enhance your experience and personalize the content and advertising you see.
Visit our Privacy Policy to learn more. By continuing to use the site, you agree to this use of cookies and data.
  • In France
  • List of Countries
  • For 7 days
  • Water Temperature
  • Satellite Maps
  • Weather Map
  • Weather Widgets
  • user-avatar
    Login

    Hourly Weather Banja Luka

    Today, 23 March, Saturday

    Time Temperature Precipitation Wind Pressure Humidity
    00:00 +6°C° 0 mm 1 mps 722 mmHg 72%
    01:00 +5°C° 0 mm 1 mps 722 mmHg 72%
    02:00 +5°C° 0 mm 1 mps 721 mmHg 72%
    03:00 +5°C° 0 mm 1 mps 721 mmHg 73%
    04:00 +5°C° 0 mm 1 mps 721 mmHg 74%
    05:00 +4°C° 0 mm 0 mps 721 mmHg 72%
    06:00 +5°C° 0 mm 0 mps 721 mmHg 70%
    07:00 +7°C° 0 mm 1 mps 722 mmHg 65%
    08:00 +9°C° 0 mm 1 mps 722 mmHg 58%
    09:00 +12°C° 0 mm 1 mps 722 mmHg 52%
    10:00 +14°C° 0 mm 1 mps 722 mmHg 45%
    11:00 +15°C° 0 mm 2 mps 722 mmHg 45%
    12:00 +16°C° 0 mm 2 mps 722 mmHg 44%
    13:00 +17°C° 0 mm 2 mps 722 mmHg 44%
    14:00 +17°C° 0 mm 2 mps 721 mmHg 47%
    15:00 +16°C° 0 mm 2 mps 721 mmHg 49%
    16:00 +16°C° 0 mm 2 mps 720 mmHg 52%
    17:00 +14°C° 0 mm 2 mps 720 mmHg 61%
    18:00 +12°C° 0 mm 1 mps 720 mmHg 71%
    19:00 +8°C° 0 mm 0 mps 720 mmHg 80%
    20:00 +8°C° 0 mm 0 mps 720 mmHg 82%
    21:00 +7°C° 0 mm 0 mps 720 mmHg 84%
    22:00 +7°C° 0 mm 0 mps 720 mmHg 85%
    23:00 +7°C° 0 mm 0 mps 720 mmHg 86%

    Tomorrow, 24 March, Sunday

    Time Temperature Precipitation Wind Pressure Humidity
    00:00 +7°C° 0 mm 1 mps 720 mmHg 86%
    01:00 +7°C° 0 mm 1 mps 720 mmHg 87%
    02:00 +7°C° 0 mm 1 mps 720 mmHg 87%
    03:00 +6°C° 0 mm 1 mps 720 mmHg 86%
    04:00 +6°C° 0 mm 1 mps 720 mmHg 86%
    05:00 +7°C° 0 mm 1 mps 720 mmHg 82%
    06:00 +7°C° 0 mm 1 mps 720 mmHg 79%
    07:00 +8°C° 0 mm 1 mps 720 mmHg 75%
    08:00 +11°C° 0 mm 1 mps 720 mmHg 63%
    09:00 +14°C° 0 mm 1 mps 720 mmHg 50%
    10:00 +18°C° 0 mm 1 mps 720 mmHg 38%
    11:00 +19°C° 0 mm 1 mps 720 mmHg 35%
    12:00 +20°C° 0 mm 1 mps 720 mmHg 32%
    13:00 +21°C° 0 mm 1 mps 720 mmHg 28%
    14:00 +21°C° 0 mm 1 mps 719 mmHg 29%
    15:00 +20°C° 0 mm 1 mps 718 mmHg 30%
    16:00 +20°C° 0 mm 1 mps 718 mmHg 31%
    17:00 +16°C° 0 mm 1 mps 717 mmHg 39%
    18:00 +13°C° 0 mm 0 mps 717 mmHg 46%
    19:00 +10°C° 0 mm 0 mps 716 mmHg 54%
    20:00 +10°C° 0 mm 0 mps 716 mmHg 56%
    21:00 +10°C° 0 mm 1 mps 716 mmHg 58%
    22:00 +10°C° 0 mm 1 mps 716 mmHg 60%
    23:00 +9°C° 0 mm 1 mps 716 mmHg 62%

    Day after tomorrow, 25 March, Monday

    Time Temperature Precipitation Wind Pressure Humidity
    00:00 +9°C° 0 mm 1 mps 716 mmHg 64%
    01:00 +9°C° 0 mm 1 mps 716 mmHg 66%
    02:00 +9°C° 0 mm 1 mps 715 mmHg 67%
    03:00 +8°C° 0 mm 1 mps 715 mmHg 69%
    04:00 +8°C° 0 mm 1 mps 714 mmHg 70%
    05:00 +9°C° 0 mm 1 mps 714 mmHg 69%
    06:00 +9°C° 0 mm 1 mps 714 mmHg 67%
    07:00 +10°C° 0 mm 1 mps 714 mmHg 66%
    08:00 +13°C° 0 mm 1 mps 714 mmHg 58%
    09:00 +15°C° 0 mm 0 mps 715 mmHg 49%
    10:00 +18°C° 0 mm 0 mps 715 mmHg 41%
    11:00 +18°C° 0 mm 0 mps 714 mmHg 39%
    12:00 +21°C° 0 mm 1 mps 714 mmHg 37%
    13:00 +21°C° 0 mm 1 mps 714 mmHg 35%
    14:00 +20°C° 0 mm 1 mps 713 mmHg 37%
    15:00 +19°C° 0 mm 1 mps 712 mmHg 39%
    16:00 +18°C° 0 mm 2 mps 712 mmHg 42%
    17:00 +15°C° 0.1 mm 2 mps 712 mmHg 53%
    18:00 +13°C° 0.1 mm 2 mps 712 mmHg 64%
    19:00 +10°C° 0.1 mm 2 mps 712 mmHg 75%
    20:00 +9°C° 1.5 mm 3 mps 713 mmHg 81%
    21:00 +7°C° 1.5 mm 3 mps 713 mmHg 88%
    22:00 +5°C° 1.5 mm 4 mps 714 mmHg 94%
    23:00 +4°C° 1.7 mm 4 mps 715 mmHg 92%

    26 March, Tuesday

    Time Temperature Precipitation Wind Pressure Humidity
    00:00 +4°C° 1.7 mm 4 mps 715 mmHg 89%
    01:00 +3°C° 1.7 mm 4 mps 715 mmHg 87%
    02:00 +1°C° 0.1 mm 4 mps 715 mmHg 88%
    03:00 +2°C° 0.1 mm 3 mps 716 mmHg 89%
    04:00 +1°C° 0.1 mm 3 mps 716 mmHg 90%
    05:00 +1°C° 0.1 mm 3 mps 716 mmHg 88%
    06:00 +1°C° 0.1 mm 3 mps 717 mmHg 86%
    07:00 +1°C° 0.1 mm 3 mps 717 mmHg 84%
    08:00 +2°C° 0.2 mm 3 mps 718 mmHg 80%
    09:00 +3°C° 0.2 mm 4 mps 718 mmHg 77%
    10:00 +3°C° 0.2 mm 4 mps 719 mmHg 74%
    11:00 +4°C° 0.1 mm 4 mps 719 mmHg 69%
    12:00 +4°C° 0.1 mm 4 mps 719 mmHg 65%
    13:00 +5°C° 0.1 mm 4 mps 719 mmHg 61%
    14:00 +5°C° 0 mm 4 mps 719 mmHg 59%
    15:00 +5°C° 0 mm 4 mps 719 mmHg 57%
    16:00 +6°C° 0 mm 4 mps 719 mmHg 55%
    17:00 +4°C° 0 mm 4 mps 719 mmHg 60%
    18:00 +3°C° 0 mm 3 mps 719 mmHg 66%
    19:00 +3°C° 0 mm 2 mps 719 mmHg 71%
    20:00 +2°C° 0 mm 2 mps 720 mmHg 75%
    21:00 +2°C° 0 mm 1 mps 720 mmHg 78%
    22:00 +2°C° 0 mm 1 mps 720 mmHg 82%
    23:00 +1°C° 0 mm 1 mps 720 mmHg 85%

    27 March, Wednesday

    Time Temperature Precipitation Wind Pressure Humidity
    00:00 +1°C° 0 mm 1 mps 720 mmHg 88%
    01:00 0°C° 0 mm 0 mps 720 mmHg 91%
    02:00 -1°C° 0 mm 0 mps 720 mmHg 92%
    03:00 -1°C° 0 mm 0 mps 720 mmHg 92%
    04:00 -1°C° 0 mm 0 mps 720 mmHg 93%
    05:00 0°C° 0 mm 0 mps 720 mmHg 89%
    06:00 0°C° 0 mm 0 mps 721 mmHg 86%
    07:00 +2°C° 0 mm 1 mps 721 mmHg 82%
    08:00 +4°C° 0 mm 1 mps 721 mmHg 73%
    09:00 +5°C° 0 mm 2 mps 722 mmHg 63%
    10:00 +7°C° 0 mm 3 mps 722 mmHg 53%
    11:00 +7°C° 0 mm 3 mps 722 mmHg 51%
    12:00 +8°C° 0 mm 3 mps 722 mmHg 49%
    13:00 +8°C° 0 mm 4 mps 721 mmHg 47%
    14:00 +7°C° 0 mm 4 mps 721 mmHg 48%
    15:00 +7°C° 0 mm 4 mps 721 mmHg 49%
    16:00 +7°C° 0 mm 4 mps 721 mmHg 50%
    17:00 +7°C° 0 mm 3 mps 721 mmHg 57%
    18:00 +5°C° 0 mm 2 mps 721 mmHg 64%
    19:00 +4°C° 0 mm 2 mps 721 mmHg 70%
    20:00 +4°C° 0 mm 1 mps 721 mmHg 73%
    21:00 +4°C° 0 mm 1 mps 721 mmHg 75%
    22:00 +3°C° 0 mm 1 mps 721 mmHg 77%
    23:00 +2°C° 0 mm 1 mps 721 mmHg 80%

    28 March, Thursday

    Time Temperature Precipitation Wind Pressure Humidity
    00:00 +2°C° 0 mm 1 mps 721 mmHg 83%
    01:00 0°C° 0 mm 0 mps 721 mmHg 85%
    02:00 0°C° 0 mm 0 mps 721 mmHg 86%
    03:00 +1°C° 0 mm 1 mps 721 mmHg 86%
    04:00 +1°C° 0 mm 1 mps 721 mmHg 86%
    05:00 +2°C° 0 mm 1 mps 721 mmHg 81%
    06:00 +2°C° 0 mm 1 mps 722 mmHg 77%
    07:00 +3°C° 0 mm 1 mps 722 mmHg 73%
    08:00 +4°C° 0 mm 2 mps 722 mmHg 65%
    09:00 +5°C° 0 mm 3 mps 723 mmHg 58%
    10:00 +7°C° 0 mm 3 mps 723 mmHg 50%
    11:00 +8°C° 0 mm 3 mps 723 mmHg 50%
    12:00 +8°C° 0 mm 4 mps 723 mmHg 50%
    13:00 +8°C° 0 mm 4 mps 723 mmHg 49%
    14:00 +9°C° 0 mm 3 mps 722 mmHg 51%
    15:00 +9°C° 0 mm 3 mps 722 mmHg 53%
    16:00 +9°C° 0 mm 3 mps 722 mmHg 55%
    17:00 +7°C° 0 mm 3 mps 722 mmHg 62%
    18:00 +6°C° 0 mm 2 mps 722 mmHg 68%
    19:00 +5°C° 0 mm 1 mps 722 mmHg 75%
    20:00 +5°C° 0 mm 1 mps 722 mmHg 78%
    21:00 +4°C° 0 mm 1 mps 722 mmHg 82%
    22:00 +2°C° 0 mm 0 mps 722 mmHg 85%
    23:00 +2°C° 0 mm 0 mps 722 mmHg 86%
    Show more